• In Hungary
  • List of Countries
  • For 7 days
  • Water Temperature
  • Satellite Maps
  • Weather Map
  • News
  • Weather Widgets
  • user-avatar
    Login

    Hourly Weather Muhorshibir

    Today, 21 October, Saturday

    Time Temperature Precipitation Wind Pressure Humidity
    00:00 +1°C° 0 mm 1 mps 698 mmHg 75%
    01:00 +1°C° 0 mm 1 mps 698 mmHg 76%
    02:00 +1°C° 0 mm 1 mps 698 mmHg 75%
    03:00 +1°C° 0 mm 1 mps 698 mmHg 75%
    04:00 0°C° 0 mm 1 mps 698 mmHg 75%
    05:00 +1°C° 0.2 mm 1 mps 698 mmHg 74%
    06:00 +1°C° 0.2 mm 1 mps 698 mmHg 74%
    07:00 +1°C° 0.2 mm 1 mps 698 mmHg 73%
    08:00 +2°C° 0.2 mm 1 mps 699 mmHg 73%
    09:00 +3°C° 0.2 mm 1 mps 699 mmHg 72%
    10:00 +2°C° 0.2 mm 0 mps 699 mmHg 72%
    11:00 +4°C° 0.3 mm 1 mps 699 mmHg 73%
    12:00 +4°C° 0.3 mm 1 mps 699 mmHg 73%
    13:00 +5°C° 0.3 mm 1 mps 699 mmHg 74%
    14:00 +4°C° 0.1 mm 1 mps 699 mmHg 76%
    15:00 +3°C° 0.1 mm 0 mps 700 mmHg 78%
    16:00 +3°C° 0.1 mm 0 mps 700 mmHg 81%
    17:00 +2°C° 0 mm 0 mps 700 mmHg 84%
    18:00 +1°C° 0 mm 0 mps 700 mmHg 88%
    19:00 +1°C° 0 mm 1 mps 701 mmHg 91%
    20:00 +1°C° 0 mm 1 mps 701 mmHg 92%
    21:00 +1°C° 0 mm 1 mps 701 mmHg 92%
    22:00 0°C° 0 mm 1 mps 701 mmHg 93%
    23:00 0°C° 0 mm 1 mps 701 mmHg 93%

    Tomorrow, 22 October, Sunday

    Time Temperature Precipitation Wind Pressure Humidity
    00:00 0°C° 0 mm 1 mps 701 mmHg 93%
    01:00 0°C° 0 mm 1 mps 701 mmHg 94%
    02:00 0°C° 0 mm 1 mps 701 mmHg 94%
    03:00 0°C° 0 mm 1 mps 701 mmHg 94%
    04:00 0°C° 0 mm 1 mps 701 mmHg 94%
    05:00 0°C° 0 mm 1 mps 701 mmHg 93%
    06:00 -2°C° 0 mm 2 mps 701 mmHg 93%
    07:00 -2°C° 0 mm 2 mps 702 mmHg 92%
    08:00 +1°C° 0 mm 2 mps 702 mmHg 83%
    09:00 +4°C° 0 mm 2 mps 701 mmHg 74%
    10:00 +6°C° 0 mm 2 mps 701 mmHg 65%
    11:00 +7°C° 0 mm 3 mps 701 mmHg 60%
    12:00 +9°C° 0 mm 3 mps 700 mmHg 55%
    13:00 +10°C° 0 mm 3 mps 700 mmHg 51%
    14:00 +9°C° 0 mm 3 mps 699 mmHg 56%
    15:00 +7°C° 0 mm 2 mps 699 mmHg 61%
    16:00 +6°C° 0 mm 2 mps 698 mmHg 66%
    17:00 +5°C° 0 mm 2 mps 698 mmHg 71%
    18:00 +4°C° 0 mm 2 mps 698 mmHg 76%
    19:00 +2°C° 0 mm 2 mps 698 mmHg 81%
    20:00 +2°C° 0 mm 2 mps 698 mmHg 81%
    21:00 +1°C° 0 mm 2 mps 698 mmHg 81%
    22:00 +1°C° 0 mm 2 mps 698 mmHg 81%
    23:00 +1°C° 0 mm 2 mps 697 mmHg 80%

    Day after tomorrow, 23 October, Monday

    Time Temperature Precipitation Wind Pressure Humidity
    00:00 +1°C° 0 mm 2 mps 697 mmHg 79%
    01:00 +1°C° 0 mm 2 mps 697 mmHg 78%
    02:00 -1°C° 0 mm 2 mps 696 mmHg 77%
    03:00 -1°C° 0 mm 2 mps 696 mmHg 76%
    04:00 -1°C° 0 mm 2 mps 695 mmHg 75%
    05:00 -1°C° 0 mm 2 mps 695 mmHg 75%
    06:00 -1°C° 0 mm 2 mps 695 mmHg 74%
    07:00 -1°C° 0 mm 2 mps 695 mmHg 73%
    08:00 +3°C° 0 mm 2 mps 695 mmHg 65%
    09:00 +5°C° 0 mm 2 mps 695 mmHg 58%
    10:00 +7°C° 0 mm 3 mps 695 mmHg 50%
    11:00 +8°C° 0 mm 3 mps 695 mmHg 49%
    12:00 +9°C° 0 mm 3 mps 695 mmHg 48%
    13:00 +9°C° 0 mm 3 mps 695 mmHg 48%
    14:00 +8°C° 0 mm 2 mps 695 mmHg 53%
    15:00 +7°C° 0 mm 2 mps 695 mmHg 59%
    16:00 +7°C° 0 mm 1 mps 695 mmHg 64%
    17:00 +6°C° 0 mm 1 mps 696 mmHg 69%
    18:00 +4°C° 0 mm 1 mps 697 mmHg 73%
    19:00 +3°C° 0 mm 1 mps 697 mmHg 78%
    20:00 +3°C° 0 mm 1 mps 698 mmHg 79%
    21:00 +3°C° 0 mm 1 mps 699 mmHg 80%
    22:00 +2°C° 0 mm 1 mps 699 mmHg 81%
    23:00 +2°C° 0 mm 1 mps 699 mmHg 82%

    24 October, Tuesday

    Time Temperature Precipitation Wind Pressure Humidity
    00:00 +2°C° 0 mm 1 mps 700 mmHg 83%
    01:00 +2°C° 0 mm 1 mps 700 mmHg 85%
    02:00 +1°C° 0 mm 1 mps 700 mmHg 87%
    03:00 0°C° 0 mm 0 mps 700 mmHg 88%
    04:00 0°C° 0 mm 0 mps 700 mmHg 90%
    05:00 +1°C° 0 mm 1 mps 701 mmHg 90%
    06:00 +1°C° 0 mm 1 mps 701 mmHg 90%
    07:00 +1°C° 0 mm 1 mps 701 mmHg 90%
    08:00 +3°C° 0 mm 1 mps 701 mmHg 80%
    09:00 +4°C° 0 mm 0 mps 702 mmHg 70%
    10:00 +6°C° 0 mm 0 mps 702 mmHg 60%
    11:00 +8°C° 0 mm 1 mps 702 mmHg 58%
    12:00 +8°C° 0 mm 1 mps 701 mmHg 55%
    13:00 +9°C° 0 mm 1 mps 701 mmHg 53%
    14:00 +8°C° 0 mm 1 mps 701 mmHg 57%
    15:00 +7°C° 0 mm 1 mps 701 mmHg 62%
    16:00 +6°C° 0 mm 1 mps 701 mmHg 67%
    17:00 +4°C° 0 mm 1 mps 701 mmHg 71%
    18:00 +3°C° 0 mm 1 mps 701 mmHg 76%
    19:00 +1°C° 0 mm 0 mps 701 mmHg 81%
    20:00 0°C° 0 mm 0 mps 701 mmHg 82%
    21:00 0°C° 0 mm 0 mps 701 mmHg 83%
    22:00 0°C° 0 mm 0 mps 702 mmHg 84%
    23:00 0°C° 0 mm 0 mps 701 mmHg 85%

    25 October, Wednesday

    Time Temperature Precipitation Wind Pressure Humidity
    00:00 +1°C° 0 mm 1 mps 701 mmHg 86%
    01:00 0°C° 0 mm 1 mps 701 mmHg 86%
    02:00 0°C° 0 mm 1 mps 701 mmHg 87%
    03:00 0°C° 0 mm 1 mps 701 mmHg 88%
    04:00 0°C° 0 mm 1 mps 701 mmHg 89%
    05:00 0°C° 0 mm 1 mps 701 mmHg 89%
    06:00 0°C° 0 mm 1 mps 700 mmHg 90%
    07:00 0°C° 0 mm 1 mps 700 mmHg 90%
    08:00 +3°C° 0 mm 1 mps 700 mmHg 80%
    09:00 +5°C° 0 mm 1 mps 700 mmHg 71%
    10:00 +7°C° 0 mm 1 mps 700 mmHg 61%
    11:00 +8°C° 0 mm 1 mps 700 mmHg 57%
    12:00 +9°C° 0 mm 1 mps 699 mmHg 54%
    13:00 +9°C° 0 mm 2 mps 699 mmHg 50%
    14:00 +9°C° 0 mm 1 mps 698 mmHg 55%
    15:00 +8°C° 0 mm 1 mps 698 mmHg 61%
    16:00 +5°C° 0 mm 0 mps 698 mmHg 66%
    17:00 +4°C° 0 mm 0 mps 698 mmHg 70%
    18:00 +3°C° 0 mm 0 mps 698 mmHg 75%
    19:00 +2°C° 0 mm 0 mps 698 mmHg 79%
    20:00 +2°C° 0 mm 0 mps 698 mmHg 80%
    21:00 +1°C° 0 mm 0 mps 698 mmHg 81%
    22:00 +2°C° 0 mm 1 mps 698 mmHg 82%
    23:00 +2°C° 0 mm 1 mps 698 mmHg 83%

    26 October, Thursday

    Time Temperature Precipitation Wind Pressure Humidity
    00:00 +1°C° 0 mm 1 mps 698 mmHg 84%
    01:00 +1°C° 0 mm 1 mps 698 mmHg 85%
    02:00 +1°C° 0 mm 1 mps 698 mmHg 86%
    03:00 +1°C° 0 mm 1 mps 698 mmHg 86%
    04:00 +1°C° 0 mm 1 mps 698 mmHg 86%
    05:00 +1°C° 0 mm 1 mps 698 mmHg 86%
    06:00 +1°C° 0 mm 1 mps 698 mmHg 86%
    07:00 +1°C° 0 mm 1 mps 698 mmHg 86%
    08:00 +3°C° 0 mm 1 mps 697 mmHg 76%
    09:00 +4°C° 0 mm 2 mps 697 mmHg 67%
    10:00 +7°C° 0 mm 2 mps 697 mmHg 57%
    11:00 +8°C° 0 mm 2 mps 696 mmHg 53%
    12:00 +9°C° 0 mm 2 mps 696 mmHg 50%
    13:00 +10°C° 0 mm 3 mps 695 mmHg 46%
    14:00 +9°C° 0 mm 2 mps 695 mmHg 52%
    15:00 +7°C° 0 mm 2 mps 694 mmHg 57%
    16:00 +7°C° 0 mm 1 mps 694 mmHg 63%
    17:00 +6°C° 0 mm 1 mps 694 mmHg 68%
    18:00 +4°C° 0 mm 1 mps 694 mmHg 73%
    19:00 +3°C° 0 mm 1 mps 694 mmHg 78%
    20:00 +3°C° 0 mm 1 mps 694 mmHg 80%
    21:00 +2°C° 0 mm 1 mps 694 mmHg 81%
    22:00 +2°C° 0 mm 1 mps 695 mmHg 83%
    23:00 +2°C° 0 mm 1 mps 695 mmHg 84%
    Show more